[[{"header":{"parameterUnit":"m.s-1","parameterCategory":2,"la1":30.2991,"la2":30.254,"lo1":-89.0895,"lo2":-89.0444,"dy":0.0017,"dx":0.0017,"nx":28,"ny":28,"refTime":"2024-08-31T03:00:00:Z","depth":"0","parameterNumber":2,"parameterNumberName":"U-component_of_CURRENTS"},"data":[0,0,0,0,0,0,0,0,0,0,0,0,0,0,0,0,0,0,0,0,0,0,0,0,0,0,0,0,0,0,0,0,0,0,0,0,0,0,0,0,0,0,0,0,0,0,0,0,0,0,0,0,0,0,0,0,0,0,0.2136,0.2136,0,0.2194,0.2194,0.2194,0.2197,0.2197,0.2196,0.2196,0.2185,0.2185,0.2185,0,0,0,0,0,0,0,0,0,0,0,0,0,0.2041,0.2042,0.2136,0.2137,0.2137,0.2193,0.2194,0.2195,0.2197,0.2197,0.2196,0.2195,0.2185,0.2185,0.2185,0,0,0,0,0,0,0,0,0,0,0,0,0,0.2087,0.2043,0.2135,0.2147,0.2149,0.2193,0.2194,0.2195,0.2197,0.2197,0.2196,0.2195,0.2184,0.2185,0.2185,0.2201,0,0,0.2186,0.2186,0,0,0,0,0,0,0,0,0.2084,0.209,0.2144,0.2146,0.2148,0.2189,0.2157,0.2194,0.2197,0.2177,0.2196,0.2195,0.2182,0.2182,0.2193,0.2201,0.22,0.2186,0.2186,0.2186,0.2186,0,0,0,0,0,0,0,0.2081,0.2087,0.2156,0.2146,0.2148,0.2154,0.2159,0.2164,0.218,0.2178,0.2179,0.2189,0.2182,0.2192,0.2192,0.22,0.2186,0.2186,0.2186,0.2186,0.2246,0.2248,0,0,0,0,0,0,0.2079,0.2085,0.2155,0.2158,0.2116,0.2157,0.2162,0.2175,0.2181,0.2182,0.219,0.2189,0.2192,0.2192,0.2192,0.2228,0.2186,0.2186,0.2186,0.2245,0.2247,0.2248,0,0,0,0,0,0,0.2076,0.2084,0.2152,0.2124,0.2133,0.2159,0.2173,0.2177,0.2189,0.2191,0.219,0.2199,0.2192,0.2191,0.2211,0.2227,0.2186,0.2186,0.2243,0.2245,0.2247,0.229,0,0,0,0,0,0,0.2073,0.2083,0.2093,0.2124,0.2135,0.2189,0.2174,0.2178,0.2198,0.2197,0.2199,0.2197,0.2191,0.221,0.2211,0.2226,0.2187,0.2241,0.2244,0.2247,0.2287,0.2293,0.2299,0,0,0,0,0,0.207,0.2091,0.2093,0.2102,0.2147,0.2191,0.2197,0.2211,0.2199,0.2216,0.2218,0.2197,0.2228,0.2212,0.2212,0.2228,0.224,0.2243,0.2247,0.2284,0.2292,0.2299,0,0,0,0,0,0,0.2065,0.2094,0.2097,0.2128,0.216,0.2192,0.2211,0.2215,0.2231,0.2227,0.2217,0.2217,0.2238,0.2233,0.2216,0.2256,0.223,0.2234,0.2259,0.2266,0.2272,0.2256,0.2187,0,0,0,0,0,0.2067,0.2083,0.2118,0.2145,0.216,0.2184,0.2202,0.2213,0.2232,0.2238,0.2238,0.2242,0.2253,0.2259,0.2266,0.2289,0.2319,0.2301,0.2307,0.2312,0.2301,0.2354,0.2364,0.2259,0.2259,0.2259,0,0,0.2073,0.2092,0.2102,0.2144,0.2166,0.2193,0.2193,0.2228,0.2243,0.2234,0.2252,0.2261,0.2264,0.2292,0.23,0.2288,0.2373,0.2316,0.232,0.2306,0.2359,0.2369,0.2378,0.2261,0.2261,0.226,0,0,0.209,0.2111,0.2126,0.2153,0.2191,0.2208,0.2218,0.2252,0.2261,0.229,0.2284,0.2303,0.2322,0.2328,0.2332,0.2376,0.2402,0.2387,0.2405,0.2458,0.2467,0.2474,0.2591,0.2609,0.2392,0.2392,0.2392,0,0.2093,0.2118,0.2141,0.2165,0.2185,0.2213,0.2235,0.2257,0.2291,0.2301,0.2299,0.2336,0.2334,0.2364,0.2381,0.2387,0.2448,0.2375,0.2465,0.2473,0.248,0.2597,0.2616,0.2394,0.2394,0.2394,0.2394,0,0.2116,0.214,0.2158,0.2186,0.2213,0.2245,0.2274,0.23,0.2312,0.2329,0.2364,0.2377,0.24,0.2408,0.2405,0.2457,0.25,0.2466,0.2444,0.2493,0.2615,0.2634,0.2398,0.2397,0.2396,0.2396,0,0,0.211,0.216,0.2165,0.2181,0.2226,0.2252,0.2283,0.2321,0.2352,0.2375,0.242,0.2426,0.2441,0.2447,0.2456,0.2493,0.2614,0.2506,0.2507,0.2619,0.2799,0.2821,0.2844,0.2604,0.2606,0.2608,0.2887,0,0.2118,0.2154,0.2178,0.2217,0.2238,0.2275,0.2302,0.2339,0.2381,0.2439,0.2451,0.25,0.2456,0.2494,0.2518,0.2592,0.2656,0.2545,0.2735,0.2742,0.275,0.2861,0.2817,0.3059,0.2906,0.2909,0.2911,0,0.2125,0.2148,0.2179,0.2228,0.2241,0.2269,0.233,0.2365,0.2442,0.248,0.2525,0.256,0.2626,0.2583,0.2718,0.266,0.2729,0.2777,0.2788,0.2793,0.2796,0.2972,0.3099,0.3005,0.294,0.2938,0.2936,0,0.2097,0.2149,0.2169,0.2188,0.2247,0.2269,0.2304,0.2372,0.2419,0.2527,0.2599,0.2658,0.2738,0.2794,0.2897,0.2827,0.3077,0.2992,0.3082,0.3088,0.3075,0.3075,0.3117,0.3086,0.3086,0.3085,0.3084,0,0.2093,0.2114,0.2161,0.2177,0.2202,0.2256,0.2309,0.236,0.2467,0.254,0.2621,0.2712,0.2792,0.2938,0.298,0.3132,0.3155,0.3119,0.3157,0.3097,0.3095,0.3027,0.2968,0.3096,0.3093,0.3091,0.3089,0,0.2062,0.2096,0.2123,0.2177,0.2189,0.2211,0.2297,0.2354,0.2465,0.2583,0.2632,0.2807,0.2991,0.3111,0.3272,0.3271,0.3315,0.3433,0.3397,0.3421,0.3326,0.3271,0.3231,0.3127,0.3555,0.3557,0.3559,0,0.205,0.206,0.2101,0.211,0.2134,0.2178,0.2214,0.2325,0.2405,0.2626,0.2695,0.2931,0.3071,0.337,0.3457,0.3616,0.3442,0.3637,0.3437,0.3348,0.3316,0.3119,0.3017,0.3487,0.3488,0.3489,0.349,0,0.2024,0.2039,0.2058,0.2085,0.2117,0.2145,0.2219,0.2276,0.2434,0.256,0.2756,0.2897,0.321,0.3367,0.3605,0.3657,0.3457,0.3654,0.356,0.327,0.3061,0.2972,0.3322,0.3497,0.3497,0.3496,0.3496,0.3495,0.2002,0.2013,0.2055,0.2063,0.2089,0.2123,0.213,0.224,0.236,0.2538,0.2728,0.2934,0.3247,0.3557,0.3588,0.3629,0.3505,0.3531,0.3492,0.3313,0.3122,0.3514,0.3705,0.3705,0.3706,0.3706,0.3706,0,0.2008,0.203,0.2036,0.205,0.2041,0.2083,0.2141,0.2158,0.225,0.2474,0.2642,0.3025,0.3229,0.3418,0.3601,0.3508,0.3281,0.3409,0.311,0.3026,0.3416,0.3317,0.3431,0.3431,0.3431,0.3431,0.3431,0.3431,0.2026,0.2047,0.2044,0.2012,0.2002,0.1995,0.2006,0.2043,0.2171,0.2383,0.2602,0.2834,0.3192,0.3459,0.3451,0.3372,0.3064,0.2979,0.2876,0.3158,0.3163,0.3167,0.3058,0.3116,0.3115,0.2368,0.2362,0.2358]},{"header":{"parameterUnit":"m.s-1","parameterCategory":2,"la1":30.2991,"la2":30.254,"lo1":-89.0895,"lo2":-89.0444,"dy":0.0017,"dx":0.0017,"nx":28,"ny":28,"refTime":"2024-08-31T03:00:00:Z","depth":"0","parameterNumber":3,"parameterNumberName":"V-component_of_CURRENTS"},"data":[0,0,0,0,0,0,0,0,0,0,0,0,0,0,0,0,0,0,0,0,0,0,0,0,0,0,0,0,0,0,0,0,0,0,0,0,0,0,0,0,0,0,0,0,0,0,0,0,0,0,0,0,0,0,0,0,0,0,-0.0214,-0.0215,0,-0.0278,-0.0279,-0.028,-0.034,-0.034,-0.0341,-0.0341,-0.0406,-0.0407,-0.0408,0,0,0,0,0,0,0,0,0,0,0,0,0,-0.02,-0.02,-0.0214,-0.0215,-0.0216,-0.0278,-0.0279,-0.028,-0.0339,-0.034,-0.0341,-0.0342,-0.0406,-0.0407,-0.0408,0,0,0,0,0,0,0,0,0,0,0,0,0,-0.023,-0.02,-0.0214,-0.0252,-0.0256,-0.0278,-0.0279,-0.028,-0.0339,-0.034,-0.0341,-0.0342,-0.0405,-0.0407,-0.0409,-0.04,0,0,-0.0414,-0.0414,0,0,0,0,0,0,0,0,-0.0229,-0.0231,-0.0246,-0.0249,-0.0254,-0.0301,-0.0298,-0.032,-0.0339,-0.0309,-0.0341,-0.0343,-0.037,-0.0374,-0.0386,-0.0403,-0.0406,-0.0414,-0.0415,-0.0416,-0.0416,0,0,0,0,0,0,0,-0.0226,-0.0229,-0.0241,-0.0246,-0.0251,-0.0285,-0.029,-0.0303,-0.0334,-0.0311,-0.0316,-0.0321,-0.0372,-0.0384,-0.0388,-0.0407,-0.0414,-0.0415,-0.0416,-0.0417,-0.0447,-0.0447,0,0,0,0,0,0,-0.0212,-0.0226,-0.0239,-0.0242,-0.0242,-0.0284,-0.029,-0.0286,-0.0334,-0.0342,-0.032,-0.0323,-0.0381,-0.0386,-0.039,-0.0398,-0.0416,-0.0417,-0.0418,-0.0447,-0.0447,-0.0447,0,0,0,0,0,0,-0.0211,-0.0212,-0.0236,-0.0236,-0.0241,-0.0283,-0.0278,-0.0286,-0.0297,-0.034,-0.0348,-0.0322,-0.0381,-0.0388,-0.0401,-0.04,-0.0418,-0.0419,-0.0447,-0.0447,-0.0447,-0.0404,0,0,0,0,0,0,-0.021,-0.0211,-0.0202,-0.0234,-0.0241,-0.0241,-0.0277,-0.0287,-0.0298,-0.0304,-0.0344,-0.0352,-0.0383,-0.0398,-0.0403,-0.0403,-0.0421,-0.0448,-0.0447,-0.0447,-0.0406,-0.0402,-0.0399,0,0,0,0,0,-0.021,-0.0186,-0.0201,-0.0202,-0.0226,-0.024,-0.0246,-0.0281,-0.0297,-0.0295,-0.0327,-0.035,-0.04,-0.0399,-0.0405,-0.0405,-0.0448,-0.0447,-0.0447,-0.0407,-0.0403,-0.0399,0,0,0,0,0,0,-0.0167,-0.0191,-0.0208,-0.019,-0.0212,-0.025,-0.0248,-0.0271,-0.0295,-0.0299,-0.0342,-0.0351,-0.0367,-0.0386,-0.0385,-0.0413,-0.0429,-0.043,-0.0397,-0.0393,-0.039,-0.0369,-0.0422,0,0,0,0,0,-0.0154,-0.0149,-0.0177,-0.0164,-0.017,-0.0207,-0.0217,-0.024,-0.0266,-0.0278,-0.0308,-0.0339,-0.0369,-0.0379,-0.0406,-0.0411,-0.0409,-0.0417,-0.0413,-0.041,-0.0397,-0.0411,-0.0408,-0.0445,-0.0445,-0.0445,0,0,-0.0135,-0.0147,-0.0144,-0.0157,-0.0175,-0.0181,-0.0215,-0.0221,-0.0232,-0.0279,-0.0294,-0.0327,-0.0368,-0.0385,-0.0394,-0.04,-0.0391,-0.041,-0.0407,-0.0395,-0.041,-0.0407,-0.0403,-0.0445,-0.0445,-0.0445,0,0,-0.0098,-0.0101,-0.0091,-0.0106,-0.0129,-0.0151,-0.0149,-0.0182,-0.02,-0.0216,-0.0261,-0.0287,-0.0322,-0.0357,-0.0379,-0.0368,-0.0377,-0.0379,-0.0343,-0.0357,-0.0353,-0.0351,-0.0308,-0.0302,-0.0375,-0.0375,-0.0374,0,-0.0074,-0.0068,-0.0089,-0.0087,-0.0096,-0.0134,-0.013,-0.0151,-0.0186,-0.0188,-0.0214,-0.0268,-0.0311,-0.0332,-0.0343,-0.0361,-0.0349,-0.0355,-0.0351,-0.0349,-0.0347,-0.0305,-0.0299,-0.0372,-0.0373,-0.0373,-0.0373,0,-0.0041,-0.0038,-0.0029,-0.0045,-0.0054,-0.0052,-0.0086,-0.0093,-0.0119,-0.0138,-0.0158,-0.0216,-0.0244,-0.0272,-0.031,-0.0318,-0.0305,-0.0347,-0.0358,-0.034,-0.0297,-0.0291,-0.0369,-0.037,-0.0371,-0.0371,0,0,0.0016,-0.0003,-0.0001,-0.0003,-0.0032,-0.0031,-0.0041,-0.0052,-0.0026,-0.0083,-0.005,-0.0146,-0.0165,-0.0191,-0.0241,-0.0264,-0.0247,-0.0296,-0.0298,-0.0246,-0.0228,-0.0187,-0.0177,-0.0291,-0.029,-0.029,-0.019,0,0.0045,0.0057,0.0036,0.0048,0.0052,0.002,0.0026,0.0013,0.0009,0.0039,-0.0029,-0.0012,-0.0137,-0.0123,-0.0183,-0.0217,-0.0235,-0.0266,-0.0259,-0.0258,-0.0219,-0.0172,-0.0207,-0.0119,-0.0185,-0.0184,-0.0183,0,0.0078,0.008,0.0097,0.0101,0.0104,0.0116,0.014,0.0143,0.0163,0.0174,0.0154,0.0127,0.0088,-0.0005,-0.0092,-0.0103,-0.0166,-0.0205,-0.0203,-0.0177,-0.0208,-0.0156,-0.0107,-0.0333,-0.0175,-0.0176,-0.0176,0,0.0122,0.0124,0.0141,0.0138,0.014,0.016,0.0174,0.0195,0.0262,0.0295,0.0391,0.028,0.0331,0.0175,0.007,-0.0005,0.0021,-0.0094,-0.0114,-0.0109,-0.0142,-0.0142,-0.0307,-0.015,-0.015,-0.015,-0.0151,0,0.0156,0.0172,0.0174,0.0186,0.0242,0.0226,0.033,0.0328,0.043,0.0585,0.0484,0.0614,0.0383,0.0367,0.0171,0.0088,0.0093,-0.0077,-0.0083,-0.0124,-0.0122,-0.0324,-0.0439,-0.0147,-0.0148,-0.0148,-0.0149,0,0.0203,0.0191,0.0228,0.025,0.0265,0.032,0.0456,0.0573,0.0635,0.0851,0.0896,0.0917,0.0881,0.0669,0.0505,0.0306,0.0057,0.0134,0.0138,0.0129,-0.017,-0.0278,-0.0364,-0.0464,0.0093,0.0095,0.0096,0,0.023,0.0246,0.0292,0.0357,0.038,0.0478,0.0589,0.0664,0.0836,0.1067,0.1219,0.1258,0.132,0.1099,0.0726,0.0425,0.0185,0.0234,0.004,-0.0159,-0.0287,-0.0365,-0.0451,0.003,0.0031,0.0031,0.0032,0,0.03,0.0317,0.0363,0.051,0.0627,0.0766,0.0941,0.1101,0.1273,0.1446,0.1705,0.1766,0.1564,0.1258,0.0866,0.0612,0.0063,0.0237,0.0,-0.0359,-0.0425,-0.0532,-0.0023,0.0037,0.0036,0.0036,0.0036,0.0035,0.0385,0.046,0.057,0.0713,0.0856,0.1101,0.1246,0.1467,0.1731,0.201,0.2052,0.2149,0.1699,0.1122,0.0787,0.012,0.0109,-0.0134,-0.0241,-0.0294,-0.0433,0.0131,0.0191,0.0192,0.0192,0.0192,0.0192,0,0.0554,0.0656,0.0791,0.0994,0.1198,0.1235,0.1528,0.1686,0.199,0.2206,0.2362,0.2184,0.1624,0.1013,0.0141,-0.03,-0.0509,-0.0542,-0.0733,-0.0798,-0.033,-0.0382,-0.0408,-0.0408,-0.0407,-0.0407,-0.0407,-0.0407,0.0673,0.086,0.094,0.1297,0.1432,0.1695,0.1857,0.2046,0.2212,0.2432,0.2462,0.2464,0.1975,0.0485,-0.0573,-0.0816,-0.1137,-0.1158,-0.1298,-0.1078,-0.1052,-0.1027,-0.1108,-0.1285,-0.1287,-0.1768,-0.1773,-0.1777]}],[{"header":{"parameterUnit":"m.s-1","parameterCategory":2,"la1":30.2991,"la2":30.254,"lo1":-89.0895,"lo2":-89.0444,"dy":0.0017,"dx":0.0017,"nx":28,"ny":28,"refTime":"2024-08-31T03:00:00:Z","depth":"2","parameterNumber":2,"parameterNumberName":"U-component_of_CURRENTS"},"data":[0,0,0,0,0,0,0,0,0,0,0,0,0,0,0,0,0,0,0,0,0,0,0,0,0,0,0,0,0,0,0,0,0,0,0,0,0,0,0,0,0,0,0,0,0,0,0,0,0,0,0,0,0,0,0,0,0,0,0.2063,0.2064,0,0.2107,0.2108,0.2108,0.2139,0.2139,0.214,0.214,0.2156,0.2156,0.2156,0,0,0,0,0,0,0,0,0,0,0,0,0,0.2058,0.2057,0.2063,0.2064,0.2064,0.2107,0.2108,0.2108,0.2139,0.2139,0.214,0.214,0.2156,0.2156,0.2156,0,0,0,0,0,0,0,0,0,0,0,0,0,0.2076,0.2057,0.2063,0.2085,0.2088,0.2107,0.2108,0.2108,0.2139,0.2139,0.214,0.214,0.2156,0.2156,0.2156,0.2148,0,0,0.2157,0.2157,0,0,0,0,0,0,0,0,0.2075,0.2076,0.2082,0.2084,0.2087,0.2119,0.2112,0.2121,0.2139,0.2119,0.214,0.2141,0.2141,0.2143,0.2149,0.2149,0.215,0.2157,0.2157,0.2157,0.2157,0,0,0,0,0,0,0,0.2073,0.2074,0.208,0.2082,0.2085,0.2111,0.2114,0.2114,0.2126,0.212,0.2123,0.2129,0.2142,0.2149,0.215,0.215,0.2157,0.2157,0.2157,0.2157,0.2212,0.2213,0,0,0,0,0,0,0.2066,0.2073,0.2078,0.2081,0.2083,0.2111,0.2114,0.2107,0.2126,0.213,0.2129,0.213,0.2148,0.2149,0.215,0.221,0.2157,0.2157,0.2158,0.2211,0.2212,0.2214,0,0,0,0,0,0,0.2065,0.2066,0.2077,0.208,0.2083,0.211,0.2103,0.2108,0.2126,0.2133,0.2136,0.2143,0.2149,0.215,0.219,0.2209,0.2158,0.2158,0.2209,0.2211,0.2213,0.2286,0,0,0,0,0,0,0.2065,0.2065,0.2059,0.2078,0.2083,0.2106,0.2103,0.2109,0.2129,0.2132,0.2146,0.2148,0.2149,0.219,0.219,0.2208,0.2158,0.2207,0.221,0.2212,0.2282,0.229,0.2298,0,0,0,0,0,0.2064,0.2057,0.2058,0.2059,0.2072,0.2107,0.2112,0.2133,0.2129,0.2148,0.2172,0.2148,0.2205,0.2192,0.2192,0.221,0.2206,0.2209,0.2212,0.2279,0.2289,0.2297,0,0,0,0,0,0,0.2039,0.206,0.2061,0.2056,0.2087,0.2113,0.2127,0.2136,0.2167,0.2171,0.2173,0.2178,0.2215,0.2204,0.2189,0.2233,0.2198,0.2201,0.2248,0.2257,0.2265,0.2257,0.2158,0,0,0,0,0,0.2031,0.2042,0.2064,0.2064,0.2078,0.2102,0.2116,0.2134,0.2162,0.2176,0.2187,0.2201,0.2224,0.2236,0.2248,0.2274,0.2289,0.2283,0.229,0.2297,0.2291,0.2345,0.2358,0.2224,0.2224,0.2224,0,0,0.2023,0.2035,0.204,0.2062,0.2083,0.2117,0.2112,0.2144,0.2181,0.2171,0.222,0.2227,0.2237,0.2277,0.2291,0.2273,0.235,0.2301,0.2307,0.2296,0.235,0.2363,0.2375,0.2226,0.2225,0.2225,0,0,0.2023,0.2022,0.2038,0.2065,0.2103,0.213,0.2141,0.2176,0.2202,0.225,0.2255,0.228,0.2308,0.2326,0.2336,0.2389,0.2388,0.2387,0.2422,0.2476,0.2488,0.2498,0.2565,0.2581,0.2392,0.2392,0.2393,0,0.2015,0.2033,0.205,0.2076,0.2108,0.2138,0.2175,0.2207,0.2254,0.2276,0.2277,0.2325,0.2331,0.238,0.2405,0.2405,0.2444,0.2389,0.2488,0.2498,0.2507,0.2573,0.2589,0.2396,0.2396,0.2396,0.2395,0,0.203,0.2053,0.2068,0.2118,0.2152,0.2193,0.2241,0.2277,0.2307,0.2333,0.2384,0.2403,0.243,0.2437,0.2441,0.2504,0.2515,0.2493,0.2465,0.2525,0.2591,0.2607,0.2402,0.2401,0.2399,0.2398,0,0,0.2002,0.207,0.2076,0.2109,0.2183,0.221,0.2279,0.2345,0.2387,0.2421,0.2482,0.2507,0.2504,0.2515,0.2519,0.256,0.2671,0.256,0.2561,0.263,0.2817,0.2715,0.2722,0.2676,0.2679,0.268,0.2849,0,0.2022,0.2073,0.2112,0.218,0.2218,0.2274,0.2335,0.2391,0.2448,0.2514,0.2532,0.2587,0.2541,0.2571,0.2603,0.2665,0.271,0.2628,0.2745,0.2748,0.2652,0.2735,0.2541,0.2664,0.2864,0.2867,0.2869,0,0.203,0.207,0.2133,0.2218,0.2239,0.2288,0.2387,0.2446,0.2538,0.2579,0.2623,0.2653,0.2726,0.268,0.2791,0.2749,0.2783,0.2813,0.282,0.2701,0.2673,0.263,0.2685,0.2894,0.2892,0.2891,0.2889,0,0.201,0.2086,0.2139,0.2168,0.2265,0.2308,0.2368,0.2459,0.2522,0.2633,0.2698,0.276,0.2831,0.2872,0.2905,0.2884,0.3024,0.3006,0.2939,0.2934,0.2774,0.2749,0.3072,0.3071,0.3071,0.307,0.307,0,0.2034,0.2078,0.2129,0.2165,0.2221,0.2294,0.2374,0.2443,0.2565,0.2642,0.2727,0.2802,0.2885,0.296,0.2968,0.2998,0.3075,0.2961,0.2969,0.2796,0.2772,0.2956,0.2941,0.3077,0.3075,0.3074,0.3073,0,0.2038,0.2077,0.2121,0.2195,0.2219,0.2257,0.2374,0.2445,0.2559,0.2679,0.2729,0.2888,0.2988,0.3032,0.3131,0.3086,0.3116,0.309,0.2881,0.2859,0.2991,0.2978,0.3094,0.3091,0.309,0.3088,0.3087,0,0.2059,0.2075,0.2109,0.2134,0.2181,0.2242,0.2306,0.2424,0.2513,0.2703,0.2779,0.2927,0.2973,0.3081,0.3061,0.3076,0.3095,0.2883,0.2779,0.2996,0.2994,0.2983,0.2973,0.2632,0.2627,0.2623,0.262,0,0.2084,0.2072,0.2105,0.2143,0.2197,0.2244,0.2348,0.2394,0.2544,0.263,0.2756,0.2807,0.2928,0.2858,0.2871,0.2841,0.2866,0.28,0.3111,0.2624,0.2565,0.2561,0.2565,0.2584,0.2587,0.259,0.2592,0.2593,0.2082,0.2091,0.2117,0.2157,0.2209,0.2258,0.2247,0.2347,0.2417,0.2489,0.2619,0.2613,0.2673,0.2597,0.253,0.2506,0.2691,0.2582,0.2594,0.261,0.2494,0.243,0.2406,0.2408,0.241,0.2412,0.2414,0,0.2089,0.2117,0.2145,0.2179,0.2203,0.2257,0.229,0.2226,0.2218,0.2323,0.2346,0.217,0.2154,0.2209,0.2134,0.2141,0.2113,0.2051,0.2007,0.2047,0.2081,0.1935,0.17,0.1698,0.1695,0.1692,0,0,0.2103,0.2128,0.2139,0.2167,0.2194,0.2142,0.2112,0.2014,0.2006,0.1909,0.1897,0.2048,0.2161,0.1895,0.1884,0.1783,0.1892,0.1718,0.2303,0.2294,0.2324,0.2414,0.2237,0,0,0,0,0]},{"header":{"parameterUnit":"m.s-1","parameterCategory":2,"la1":30.2991,"la2":30.254,"lo1":-89.0895,"lo2":-89.0444,"dy":0.0017,"dx":0.0017,"nx":28,"ny":28,"refTime":"2024-08-31T03:00:00:Z","depth":"2","parameterNumber":3,"parameterNumberName":"V-component_of_CURRENTS"},"data":[0,0,0,0,0,0,0,0,0,0,0,0,0,0,0,0,0,0,0,0,0,0,0,0,0,0,0,0,0,0,0,0,0,0,0,0,0,0,0,0,0,0,0,0,0,0,0,0,0,0,0,0,0,0,0,0,0,0,-0.008,-0.0081,0,-0.0119,-0.012,-0.012,-0.0174,-0.0175,-0.0176,-0.0177,-0.0267,-0.0268,-0.027,0,0,0,0,0,0,0,0,0,0,0,0,0,-0.0131,-0.013,-0.008,-0.0081,-0.0081,-0.0119,-0.012,-0.0121,-0.0174,-0.0175,-0.0176,-0.0177,-0.0266,-0.0268,-0.027,0,0,0,0,0,0,0,0,0,0,0,0,0,-0.0134,-0.0129,-0.008,-0.0112,-0.0115,-0.0119,-0.012,-0.0121,-0.0174,-0.0175,-0.0176,-0.0177,-0.0266,-0.0268,-0.027,-0.0259,0,0,-0.0278,-0.0279,0,0,0,0,0,0,0,0,-0.0133,-0.0132,-0.0107,-0.011,-0.0114,-0.0143,-0.0171,-0.0169,-0.0173,-0.0152,-0.0177,-0.0178,-0.0229,-0.0234,-0.0239,-0.0263,-0.0267,-0.0278,-0.0279,-0.028,-0.0281,0,0,0,0,0,0,0,-0.0133,-0.0131,-0.0096,-0.0107,-0.0111,-0.0152,-0.0153,-0.0171,-0.0184,-0.0154,-0.0158,-0.0161,-0.0231,-0.0236,-0.0241,-0.0269,-0.0278,-0.028,-0.0281,-0.0282,-0.0324,-0.0324,0,0,0,0,0,0,-0.0121,-0.013,-0.0095,-0.0097,-0.0126,-0.0149,-0.0151,-0.0132,-0.0183,-0.0191,-0.016,-0.0163,-0.0231,-0.0238,-0.0245,-0.0274,-0.028,-0.0282,-0.0284,-0.0325,-0.0324,-0.0324,0,0,0,0,0,0,-0.0122,-0.0117,-0.0094,-0.0116,-0.0116,-0.0146,-0.0126,-0.0133,-0.0144,-0.0187,-0.0196,-0.0166,-0.0233,-0.0241,-0.028,-0.0277,-0.0284,-0.0286,-0.0325,-0.0324,-0.0324,-0.0309,0,0,0,0,0,0,-0.0123,-0.0116,-0.0097,-0.0114,-0.0114,-0.0095,-0.0125,-0.0132,-0.0144,-0.0149,-0.0195,-0.0204,-0.0234,-0.0276,-0.0282,-0.0281,-0.0288,-0.0325,-0.0325,-0.0324,-0.031,-0.0308,-0.0306,0,0,0,0,0,-0.0124,-0.0093,-0.0095,-0.0091,-0.0086,-0.0095,-0.0098,-0.0126,-0.0143,-0.0143,-0.0187,-0.0203,-0.0276,-0.0278,-0.0286,-0.0284,-0.0326,-0.0325,-0.0324,-0.031,-0.0308,-0.0306,0,0,0,0,0,0,-0.0089,-0.0096,-0.0099,-0.0066,-0.0079,-0.0104,-0.0103,-0.0122,-0.0153,-0.0164,-0.0207,-0.022,-0.0248,-0.0265,-0.0266,-0.0292,-0.0299,-0.03,-0.0286,-0.0284,-0.0283,-0.0269,-0.029,0,0,0,0,0,-0.0073,-0.0065,-0.0072,-0.0048,-0.005,-0.0075,-0.0081,-0.0101,-0.0131,-0.0146,-0.0179,-0.0214,-0.0246,-0.0267,-0.0291,-0.0309,-0.0322,-0.0309,-0.0307,-0.0306,-0.0298,-0.0326,-0.0326,-0.0322,-0.0322,-0.0322,0,0,-0.0057,-0.0057,-0.0052,-0.0043,-0.0055,-0.0061,-0.0082,-0.0089,-0.0109,-0.015,-0.0183,-0.0208,-0.0249,-0.0275,-0.0287,-0.0293,-0.0312,-0.0305,-0.0303,-0.0297,-0.0325,-0.0326,-0.0326,-0.0321,-0.0321,-0.0321,0,0,-0.0027,-0.0014,-0.0002,-0.0007,-0.002,-0.0046,-0.0047,-0.007,-0.0092,-0.0123,-0.0159,-0.0183,-0.0229,-0.0257,-0.0279,-0.0277,-0.03,-0.0281,-0.0269,-0.0296,-0.0297,-0.0298,-0.031,-0.0312,-0.0284,-0.0284,-0.0284,0,-0.0009,0.0013,-0.0,0.0011,0.0003,-0.0039,-0.0035,-0.0064,-0.0101,-0.0103,-0.0132,-0.0181,-0.022,-0.0248,-0.026,-0.0273,-0.0291,-0.0277,-0.0295,-0.0296,-0.0297,-0.031,-0.0312,-0.0283,-0.0283,-0.0284,-0.0284,0,0.0026,0.0041,0.0049,0.0037,0.0028,0.0023,-0.0015,-0.0029,-0.0065,-0.0082,-0.0106,-0.0161,-0.0183,-0.0203,-0.0244,-0.0262,-0.0273,-0.0288,-0.0301,-0.0297,-0.031,-0.0313,-0.0282,-0.0282,-0.0283,-0.0283,0,0,0.0061,0.0068,0.0071,0.0076,0.0041,0.004,0.0008,-0.0014,-0.0005,-0.0058,-0.0044,-0.0124,-0.0132,-0.0157,-0.0198,-0.0236,-0.0271,-0.0272,-0.0274,-0.0286,-0.0327,-0.0352,-0.0358,-0.03,-0.03,-0.0301,-0.0331,0,0.0084,0.0115,0.01,0.0106,0.0114,0.0075,0.0058,0.0037,0.0012,0.0018,-0.0037,-0.0039,-0.0124,-0.012,-0.0182,-0.0234,-0.0279,-0.0261,-0.0328,-0.0329,-0.0355,-0.0363,-0.0318,-0.0344,-0.0334,-0.0335,-0.0335,0,0.0117,0.013,0.0153,0.0156,0.0158,0.0151,0.0142,0.0126,0.0116,0.0114,0.0091,0.0061,0.0005,-0.006,-0.0182,-0.017,-0.0252,-0.0307,-0.0309,-0.034,-0.036,-0.0348,-0.035,-0.0341,-0.034,-0.034,-0.0339,0,0.0144,0.0164,0.0181,0.0183,0.0178,0.0186,0.0175,0.0168,0.019,0.0193,0.0231,0.0148,0.0134,0.0008,-0.0145,-0.0154,-0.0276,-0.0291,-0.0392,-0.0393,-0.037,-0.0369,-0.0379,-0.0379,-0.0379,-0.0379,-0.0379,0,0.0163,0.018,0.0207,0.0218,0.0252,0.0237,0.0284,0.027,0.0302,0.035,0.029,0.0301,0.0146,0.005,-0.0103,-0.0265,-0.025,-0.0388,-0.0407,-0.0363,-0.0361,-0.0369,-0.0368,-0.038,-0.038,-0.038,-0.0379,0,0.018,0.0192,0.0231,0.0257,0.0266,0.0298,0.0356,0.0406,0.0421,0.0483,0.0496,0.0432,0.0312,0.014,-0.0044,-0.0188,-0.0343,-0.0411,-0.0345,-0.0358,-0.0445,-0.0442,-0.0488,-0.0489,-0.0491,-0.0491,-0.0492,0,0.019,0.0213,0.0271,0.0319,0.0332,0.039,0.0435,0.0457,0.0518,0.0548,0.0581,0.0507,0.0448,0.0175,-0.0071,-0.0306,-0.0359,-0.0426,-0.0441,-0.0444,-0.0458,-0.0453,-0.0449,-0.0396,-0.0396,-0.0396,-0.0395,0,0.0218,0.0246,0.0284,0.0374,0.0435,0.0518,0.0582,0.0629,0.0661,0.0716,0.0732,0.0696,0.0464,0.0241,-0.0077,-0.0245,-0.0382,-0.0432,-0.0449,-0.0383,-0.0362,-0.0374,-0.0372,-0.0395,-0.0395,-0.0395,-0.0395,-0.0395,0.0255,0.0292,0.0357,0.0431,0.0524,0.0614,0.0656,0.0744,0.0813,0.0871,0.0827,0.0801,0.0562,0.0182,-0.0102,-0.0379,-0.0375,-0.0464,-0.0462,-0.046,-0.0452,-0.0435,-0.0479,-0.0479,-0.048,-0.048,-0.0481,0,0.0278,0.0324,0.0412,0.0491,0.0575,0.0631,0.0736,0.079,0.0854,0.0945,0.0972,0.0766,0.0524,0.0246,-0.015,-0.0404,-0.0416,-0.0484,-0.0432,-0.0431,-0.0431,-0.042,-0.0439,-0.0439,-0.044,-0.0441,0,0,0.0297,0.0349,0.0374,0.0491,0.0569,0.0678,0.0727,0.0842,0.0937,0.1001,0.102,0.0987,0.0644,0.0368,0.0026,-0.0198,-0.0258,-0.0248,-0.0253,-0.015,-0.0146,-0.0391,-0.037,0,0,0,0,0]}],[{"header":{"parameterUnit":"m.s-1","parameterCategory":2,"la1":30.2991,"la2":30.254,"lo1":-89.0895,"lo2":-89.0444,"dy":0.0017,"dx":0.0017,"nx":28,"ny":28,"refTime":"2024-08-31T03:00:00:Z","depth":"4","parameterNumber":2,"parameterNumberName":"U-component_of_CURRENTS"},"data":[0,0,0,0,0,0,0,0,0,0,0,0,0,0,0,0,0,0,0,0,0,0,0,0,0,0,0,0,0,0,0,0,0,0,0,0,0,0,0,0,0,0,0,0,0,0,0,0,0,0,0,0,0,0,0,0,0,0,0.1155,0.1156,0,0.1215,0.1215,0.1216,0.1262,0.1263,0.1263,0.1264,0.1346,0.1348,0.1349,0,0,0,0,0,0,0,0,0,0,0,0,0,0.1054,0.1056,0.1155,0.1156,0.1157,0.1215,0.1215,0.1216,0.1262,0.1263,0.1264,0.1264,0.1346,0.1348,0.1349,0,0,0,0,0,0,0,0,0,0,0,0,0,0.1102,0.1056,0.1154,0.1188,0.1192,0.1214,0.1215,0.1216,0.1262,0.1263,0.1264,0.1265,0.1345,0.1347,0.135,0.1344,0,0,0.1357,0.1358,0,0,0,0,0,0,0,0,0.1099,0.1105,0.1182,0.1186,0.1191,0.1234,0.121,0.1261,0.1262,0.1233,0.1264,0.1265,0.1312,0.1317,0.1322,0.1348,0.1351,0.1357,0.1359,0.136,0.136,0,0,0,0,0,0,0,0.1096,0.1103,0.1176,0.1183,0.1188,0.1192,0.12,0.1219,0.1264,0.1235,0.124,0.125,0.1314,0.132,0.1324,0.1353,0.1357,0.1359,0.1361,0.1361,0.1473,0.1475,0,0,0,0,0,0,0.1094,0.11,0.1174,0.1178,0.1149,0.1193,0.1202,0.1217,0.1264,0.1272,0.1249,0.1252,0.1315,0.1322,0.1328,0.1402,0.136,0.1362,0.1363,0.1472,0.1473,0.1475,0,0,0,0,0,0,0.1092,0.11,0.1172,0.1142,0.1152,0.1194,0.1211,0.1218,0.1253,0.1274,0.1283,0.128,0.1316,0.1324,0.1367,0.1403,0.1363,0.1365,0.147,0.1472,0.1474,0.1502,0,0,0,0,0,0,0.1089,0.1099,0.1121,0.1142,0.1153,0.1201,0.121,0.1218,0.1257,0.1262,0.1303,0.131,0.1318,0.1363,0.1369,0.1405,0.1367,0.1468,0.1471,0.1474,0.1499,0.1505,0.151,0,0,0,0,0,0.1085,0.1107,0.1122,0.1131,0.1178,0.1202,0.1208,0.1239,0.1258,0.1274,0.1304,0.1311,0.1386,0.1366,0.1372,0.1411,0.1466,0.147,0.1473,0.1496,0.1503,0.1509,0,0,0,0,0,0,0.1081,0.1115,0.1131,0.1166,0.119,0.1211,0.1235,0.1254,0.1289,0.1304,0.1322,0.133,0.1385,0.1393,0.1369,0.1453,0.1431,0.1436,0.1447,0.1454,0.1459,0.1462,0.1369,0,0,0,0,0,0.1088,0.1113,0.1142,0.1171,0.1186,0.1215,0.1234,0.1255,0.1283,0.1302,0.133,0.1365,0.1399,0.1422,0.1449,0.1487,0.1498,0.152,0.1526,0.153,0.1539,0.1574,0.1583,0.1487,0.1487,0.1487,0,0,0.1092,0.1118,0.1132,0.1172,0.1195,0.1214,0.123,0.1266,0.129,0.1304,0.1354,0.1385,0.1414,0.1461,0.1487,0.1475,0.1565,0.1535,0.1538,0.1545,0.1579,0.1588,0.1596,0.1489,0.1489,0.1488,0,0,0.1102,0.1139,0.1158,0.1179,0.1221,0.1234,0.125,0.1287,0.1317,0.1362,0.1384,0.1434,0.1484,0.151,0.1529,0.1581,0.1592,0.1601,0.1632,0.1666,0.1674,0.1681,0.1709,0.1718,0.1603,0.1603,0.1604,0,0.1109,0.1135,0.1167,0.1189,0.1212,0.1244,0.1266,0.1294,0.1342,0.1377,0.1387,0.1488,0.1507,0.1569,0.1589,0.1594,0.1614,0.1601,0.1672,0.1679,0.1686,0.1713,0.1723,0.1605,0.1605,0.1605,0.1605,0,0.1117,0.115,0.1165,0.12,0.1231,0.1254,0.1294,0.1323,0.1367,0.1414,0.1501,0.1535,0.1601,0.1616,0.1618,0.1686,0.1685,0.1672,0.165,0.1697,0.1723,0.1732,0.1608,0.1607,0.1607,0.1606,0,0,0.1097,0.1156,0.1165,0.1186,0.124,0.1261,0.1301,0.1355,0.1407,0.147,0.1546,0.1609,0.1661,0.1686,0.1707,0.1733,0.1793,0.1727,0.1728,0.1747,0.1873,0.1768,0.1768,0.1794,0.1796,0.1797,0.1872,0,0.1093,0.1128,0.1167,0.1205,0.1224,0.1268,0.1313,0.1376,0.1443,0.1522,0.1591,0.1682,0.1681,0.1732,0.1759,0.179,0.182,0.1774,0.1833,0.1835,0.1728,0.1776,0.1803,0.1879,0.1882,0.1883,0.1884,0,0.108,0.111,0.1148,0.1215,0.1233,0.1269,0.1348,0.1397,0.1511,0.1578,0.1677,0.1745,0.1824,0.1807,0.1888,0.1862,0.1877,0.1885,0.1888,0.1787,0.1747,0.1825,0.1902,0.1901,0.1899,0.1898,0.1897,0,0.1035,0.1095,0.1127,0.1147,0.1228,0.1265,0.1317,0.1427,0.1496,0.1633,0.1705,0.1815,0.188,0.192,0.1955,0.1934,0.2022,0.1993,0.1912,0.1905,0.1964,0.1956,0.2044,0.2044,0.2044,0.2044,0.2043,0,0.1,0.1023,0.1114,0.1129,0.1187,0.1265,0.1353,0.1417,0.155,0.165,0.1751,0.183,0.1911,0.1972,0.1987,0.1984,0.2056,0.1929,0.192,0.1975,0.1967,0.1971,0.1962,0.2046,0.2046,0.2045,0.2045,0,0.093,0.099,0.1032,0.113,0.1167,0.1217,0.1356,0.1424,0.1554,0.1676,0.1729,0.1863,0.1943,0.2002,0.2068,0.2013,0.2027,0.2006,0.2075,0.2067,0.188,0.1872,0.1923,0.192,0.1918,0.1915,0.1914,0,0.0884,0.0891,0.1017,0.1071,0.1121,0.1211,0.1278,0.1413,0.1492,0.1684,0.1732,0.1861,0.1936,0.1941,0.2008,0.2035,0.2006,0.1992,0.1919,0.1883,0.187,0.1866,0.1861,0.191,0.1909,0.1908,0.1908,0,0.0785,0.0849,0.0904,0.1008,0.1092,0.1171,0.1278,0.1318,0.1483,0.1609,0.1704,0.176,0.1839,0.1884,0.1914,0.1928,0.1989,0.1965,0.1969,0.19,0.1867,0.1856,0.1854,0.1899,0.19,0.1901,0.1901,0,0.0728,0.0745,0.0847,0.0933,0.104,0.1115,0.117,0.1264,0.1347,0.155,0.158,0.1714,0.183,0.1832,0.1869,0.1868,0.1836,0.1759,0.1773,0.1784,0.1702,0.1638,0.16,0,0,0,0,0,0.0667,0.0694,0.0764,0.087,0.0976,0.1042,0.1171,0.1233,0.1373,0.1405,0.1492,0.157,0.1635,0.1701,0.1673,0.1804,0.1834,0.1762,0.175,0.1849,0.1859,0.1774,0,0,0,0,0,0,0.0632,0.07,0.0736,0.0808,0.0864,0.0961,0.1038,0.113,0.1154,0.1306,0.1347,0.1471,0.1551,0.1635,0.1641,0.1662,0.1621,0.185,0.1846,0.1843,0.1852,0.1861,0.1777,0,0,0,0,0]},{"header":{"parameterUnit":"m.s-1","parameterCategory":2,"la1":30.2991,"la2":30.254,"lo1":-89.0895,"lo2":-89.0444,"dy":0.0017,"dx":0.0017,"nx":28,"ny":28,"refTime":"2024-08-31T03:00:00:Z","depth":"4","parameterNumber":3,"parameterNumberName":"V-component_of_CURRENTS"},"data":[0,0,0,0,0,0,0,0,0,0,0,0,0,0,0,0,0,0,0,0,0,0,0,0,0,0,0,0,0,0,0,0,0,0,0,0,0,0,0,0,0,0,0,0,0,0,0,0,0,0,0,0,0,0,0,0,0,0,0.0138,0.0137,0,0.0107,0.0106,0.0106,0.0092,0.0092,0.0092,0.0092,0.0039,0.0038,0.0037,0,0,0,0,0,0,0,0,0,0,0,0,0,0.0191,0.019,0.0138,0.0137,0.0137,0.0107,0.0106,0.0106,0.0092,0.0092,0.0092,0.0092,0.004,0.0038,0.0037,0,0,0,0,0,0,0,0,0,0,0,0,0,0.0165,0.019,0.0138,0.0126,0.0125,0.0107,0.0106,0.0106,0.0092,0.0092,0.0092,0.0092,0.004,0.0038,0.0036,0.0023,0,0,0.003,0.0029,0,0,0,0,0,0,0,0,0.0167,0.0163,0.0128,0.0127,0.0125,0.0103,0.0106,0.0077,0.0092,0.0104,0.0092,0.0092,0.0059,0.0055,0.005,0.0021,0.0019,0.003,0.0028,0.0028,0.0027,0,0,0,0,0,0,0,0.0169,0.0165,0.0126,0.0128,0.0126,0.0125,0.0121,0.0101,0.0082,0.0103,0.0102,0.0098,0.0058,0.0052,0.0048,0.0018,0.003,0.0028,0.0027,0.0026,-0.0014,-0.0014,0,0,0,0,0,0,0.0171,0.0166,0.0127,0.0125,0.0146,0.0124,0.0119,0.011,0.0082,0.0078,0.0098,0.0098,0.0055,0.0051,0.0046,0.0052,0.0028,0.0026,0.0024,-0.0014,-0.0014,-0.0014,0,0,0,0,0,0,0.0173,0.0168,0.0128,0.0145,0.014,0.0123,0.0112,0.011,0.0106,0.0079,0.0074,0.0098,0.0055,0.0049,0.004,0.0049,0.0025,0.0023,-0.0014,-0.0014,-0.0014,0.0049,0,0,0,0,0,0,0.0174,0.0168,0.0164,0.0145,0.0139,0.0123,0.0112,0.0109,0.0103,0.0102,0.0076,0.0071,0.0055,0.0044,0.0038,0.0046,0.0021,-0.0015,-0.0014,-0.0014,0.0046,0.0051,0.0055,0,0,0,0,0,0.0176,0.0169,0.0164,0.0159,0.0133,0.0124,0.0121,0.0109,0.0103,0.0105,0.0092,0.0072,0.0042,0.0042,0.0036,0.0043,-0.0015,-0.0014,-0.0014,0.0044,0.005,0.0055,0,0,0,0,0,0,0.0178,0.0167,0.016,0.0146,0.0139,0.0121,0.0119,0.0111,0.0102,0.0101,0.0077,0.0072,0.0065,0.0044,0.0045,0.0031,0.0009,0.0008,0.0055,0.006,0.0065,0.0075,0.0019,0,0,0,0,0,0.0179,0.0178,0.0163,0.0152,0.015,0.0136,0.013,0.0123,0.0112,0.0108,0.0091,0.0072,0.0061,0.0054,0.0036,0.003,-0.001,0.0028,0.0033,0.0037,0.004,-0.0005,-0.0004,-0.0012,-0.0012,-0.0012,0,0,0.0177,0.017,0.0168,0.0155,0.0147,0.0158,0.0133,0.0127,0.0141,0.0103,0.0111,0.0086,0.0062,0.0059,0.0054,0.0044,0.0014,0.0037,0.0041,0.0042,-0.0004,-0.0003,-0.0003,-0.0012,-0.0012,-0.0012,0,0,0.0184,0.0166,0.0177,0.0177,0.0171,0.0168,0.0169,0.0156,0.0153,0.0156,0.0134,0.0115,0.0098,0.0083,0.0075,0.0089,0.0038,0.0081,0.0114,0.0071,0.0072,0.0072,0.0008,0.0002,0.0085,0.0085,0.0085,0,0.0182,0.0194,0.0177,0.0191,0.0201,0.0178,0.02,0.0195,0.0182,0.018,0.0167,0.0134,0.0111,0.0108,0.0117,0.01,0.006,0.01,0.0078,0.0077,0.0075,0.0011,0.0003,0.0088,0.0088,0.0087,0.0087,0,0.0206,0.0218,0.0223,0.0243,0.0248,0.0259,0.0258,0.0261,0.0254,0.024,0.0227,0.0192,0.0168,0.016,0.0147,0.013,0.0098,0.0088,0.0067,0.008,0.0011,0.0002,0.0092,0.0091,0.009,0.009,0,0,0.0197,0.0236,0.024,0.0268,0.0281,0.029,0.0314,0.0325,0.0327,0.0308,0.03,0.0283,0.0241,0.0228,0.0195,0.0164,0.0117,0.0129,0.0126,0.0071,0.0004,0.0006,-0.0005,0.0105,0.0104,0.0103,-0.0045,0,0.0226,0.0277,0.0287,0.0341,0.037,0.0371,0.0389,0.0391,0.0376,0.0357,0.0317,0.0288,0.0273,0.0247,0.0219,0.0135,0.0098,0.0157,-0.0004,-0.001,-0.0006,-0.0013,0.0101,-0.0053,-0.0055,-0.0056,-0.0057,0,0.0253,0.0288,0.0348,0.04,0.0409,0.0435,0.046,0.0469,0.0437,0.0417,0.0384,0.0331,0.0279,0.0259,0.014,0.0177,0.0102,0.004,0.0033,0.0008,-0.0024,-0.0067,-0.0075,-0.0073,-0.0072,-0.0071,-0.007,0,0.0272,0.0333,0.0389,0.0407,0.0453,0.048,0.0497,0.0485,0.048,0.0439,0.0409,0.0346,0.0284,0.0206,0.0083,0.0104,-0.0065,-0.0058,-0.0128,-0.0131,-0.0115,-0.0113,-0.0137,-0.0137,-0.0137,-0.0136,-0.0136,0,0.0303,0.0347,0.0404,0.0435,0.0482,0.0503,0.0528,0.0528,0.0502,0.0481,0.0429,0.0387,0.0268,0.0158,0.0071,-0.0066,-0.008,-0.0128,-0.0163,-0.0088,-0.0081,-0.0123,-0.0119,-0.0142,-0.0141,-0.014,-0.0139,0,0.0313,0.0353,0.0417,0.0479,0.0494,0.0524,0.0549,0.0548,0.0529,0.0497,0.0478,0.0384,0.0257,0.0128,-0.0037,-0.0098,-0.0219,-0.0263,-0.0198,-0.0227,-0.0256,-0.0247,-0.0352,-0.0353,-0.0354,-0.0355,-0.0355,0,0.0324,0.0359,0.0438,0.0458,0.0488,0.0531,0.0539,0.0554,0.0552,0.0499,0.0475,0.0349,0.0279,0.0048,-0.0078,-0.0262,-0.027,-0.0351,-0.0265,-0.0251,-0.0276,-0.0265,-0.0256,-0.0357,-0.0357,-0.0357,-0.0357,0,0.0327,0.0356,0.0399,0.0441,0.0472,0.0516,0.0543,0.0546,0.0547,0.0533,0.0473,0.0362,0.021,0.0057,-0.0105,-0.0223,-0.0304,-0.036,-0.0358,-0.0278,-0.0259,-0.0279,-0.0269,-0.036,-0.036,-0.036,-0.036,0,0.0307,0.0328,0.0365,0.0404,0.044,0.0475,0.0514,0.0523,0.0527,0.05,0.0477,0.0342,0.0264,0.0074,-0.0066,-0.0194,-0.0201,-0.0226,-0.0231,-0.0229,-0.0132,-0.0086,-0.0169,0,0,0,0,0,0.0273,0.0281,0.0313,0.0359,0.0401,0.0438,0.0485,0.0522,0.054,0.0509,0.0504,0.0384,0.0189,0.0101,-0.0022,-0.0095,-0.0247,-0.0246,-0.0282,-0.0378,-0.0374,-0.0279,0,0,0,0,0,0,0.0238,0.0261,0.0288,0.0303,0.0341,0.039,0.0438,0.047,0.0472,0.048,0.0389,0.0357,0.0171,0.0263,-0.0023,-0.0064,-0.0103,-0.0331,-0.0333,-0.038,-0.0377,-0.0374,-0.0274,0,0,0,0,0]}]]